User: anonymous   Login
Location: Unspecified
(0.0000°N, 0.0000°E)
Time: 07:10:05
(UTC+00:00)
Language:

RASSVET-3 16 - Orbit

View from above orbital plane
View from above orbital plane
View from above satellite
View from above satellite

Ground track
Ground track

The orbit is defined by the following mean orbital elements,

1 68375U          26162.71759843 +.00000000 +00000-0 -24546-2 0 00007
2 68375  82.2934  18.8333 0006661 258.1678 101.8838 15.74120508    03
Epoch (UTC): 11 June 2026 17:13:20
Eccentricity: 0.0006661
inclination: 82.2934°
perigee height: 343 km
apogee height: 352 km
right ascension of ascending node: 18.8333°
argument of perigee: 258.1678°
revolutions per day: 15.74120508
mean anomaly at epoch: 101.8838°

The dashed part of the orbit path shows where the satellite is in the earth's shadow,  

DLR